Location: El Carrer d�Abaix
(41.5797°N, 2.1791°E)
Time: 21:03:46
(UTC+00:00)

Cosmos 2082 Rocket - Pass Details

Date: 01 October 2020
Orbit: 834 x 853 km, 71.0° (Epoch: 27 October)

Event Time Altitude Azimuth Distance (km) Brightness Sun altitude
Rises 21:00:37 0° 317° (NW) 3,393 6.2 -37.9°
Reaches altitude 10° 21:04:04 10° 296° (WNW) 2,456 5.3 -38.4°
Maximum altitude 21:07:11 15° 262° (W) 2,100 4.6 -38.8°
Enters shadow 21:07:41 15° 256° (WSW) 2,109 4.6 -38.9°
